Regional Weather Roundup
Issued by NWS New Orleans/Baton Rouge, LA

Home | Current Version | Previous Version | Graphics & Text | Print | Product List | Glossary On
Versions: 1 2 3 4 5 6 7 8 9 10 11 12 13 14 15 16 17 18 19 20 21 22 23 24 25 26 27 28 29 30 31 32 33 34 35 36 37 38 39 40 41 42 43 44 45 46 47 48 49 50
138
ASUS44 KLIX 031205
RWRLIX
NEW ORLEANS REGIONAL WEATHER ROUNDUP
NATIONAL WEATHER SERVICE NEW ORLEANS LA
600 AM CST TUE MAR 03 2015

NOTE: "FAIR" INDICATES FEW OR NO CLOUDS BELOW 12,000 FEET WITH NO
      SIGNIFICANT WEATHER AND/OR OBSTRUCTIONS TO VISIBILITY.
      SKY/WX - SKY CONDITION AND SIGNIFICANT WEATHER.
      TMP - AIR TEMPERATURE.     DP    - DEWPOINT TEMPERATURE.
      RH  - RELATIVE HUMIDITY.   PRES  - PRESSURE.
      HI  - HEAT INDEX.          WCI   - WIND CHILL INDEX.

*  THESE STATIONS ARE NOT NWS OR FAA STATIONS AND ARE NOT UNDER
   NWS QUALITY CONTROL.

LAZ038-040-048-061>063-065>067-069-031300-
SOUTHEAST LOUISIANA

CITY           SKY/WX    TMP DP  RH WIND       PRES   REMARKS
N.O. AUDUBON   NOT AVBL
N.O. INTL ARPT FOG       65  64  97 CALM      30.12S VSB 1/8
6HR MIN TEMP:  65; 6HR MAX TEMP:  67;

N.O. LAKEFRONT FOG       66  63  90 SE7       30.13R VSB 1/4
6HR MIN TEMP:  60; 6HR MAX TEMP:  66;

SLIDELL        FOG       64  64 100 S5        30.13R VSB 1/2
6HR MIN TEMP:  64; 6HR MAX TEMP:  65;

BATON ROUGE    FOG       58  58 100 CALM      30.11S VSB 1/2
6HR MIN TEMP:  56; 6HR MAX TEMP:  58;

BOOTHVILLE     FOG       62  62 100 SE5       30.14R VSB 1/4
6HR MIN TEMP:  62; 6HR MAX TEMP:  64;

BELLE CHASSE   FOG       66  64  93 SE5       30.12R VSB 1/4
6HR MIN TEMP:  63; 6HR MAX TEMP:  67;

BOGALUSA*      FOG       66  63  91 S3        30.14S VSB 1/2
6HR MIN TEMP:  64; 6HR MAX TEMP:  66;

GALLIANO*      FOG       56  56  97 MISG      30.12S VSB 1/4
6HR MIN TEMP:  55; 6HR MAX TEMP:  58;

NEW ROADS*     FOG       52  51  98 CALM      30.11S VSB 1/4
6HR MIN TEMP:  50; 6HR MAX TEMP:  52;

GONZALES*      FOG       64  64 100 CALM      30.11S VSB 1/4
6HR MIN TEMP:  63; 6HR MAX TEMP:  65;

HAMMOND*       NOT AVBL
HOUMA*         FOG       43  43 100 CALM      30.12R VSB 1/4
PORT FOURCHON* FOG       66  64  94 SE8       30.15S VSB 1/2

$$

MSZ070-080>082-031300-
SOUTHERN MISSISSIPPI

CITY           SKY/WX    TMP DP  RH WIND       PRES   REMARKS
MCCOMB         FOG       62  62 100 SE3       30.12R VSB 1/4
6HR MIN TEMP:  61; 6HR MAX TEMP:  62;

GULFPORT       FOG       63  63 100 S8        30.13S VSB 1/2
6HR MIN TEMP:  62; 6HR MAX TEMP:  64;

BILOXI         FOG       62  62 100 S7        30.14R VSB 1/2
6HR MIN TEMP:  62; 6HR MAX TEMP:  65;

PASCAGOULA     FOG       62  62 100 SE5       30.15R VSB 1/4
6HR MIN TEMP:  62; 6HR MAX TEMP:  64;


$$

COASTAL OBSERVATIONS
LAKE AND NEARSHORE STATIONS

STATION/POSITION TIME  TEMP    WIND        PRES    WAVE
                       AIR SEA DIR/SP/G            HT/PER
                 (UTC) (F)     (DEG/KT/KT) (MB)    (FT/S)
PASCAGOULA       1200          140/  5/  9   N/A
WAVELAND YACHT   1200      56  160/  3/  3   N/A
GRAND ISLE       1200      62  130/  3/  5   N/A
SOUTHWEST PASS   1200      45  120/ 12/ 13   N/A
NEW CANAL        1200          140/  1/  2   N/A
SHELL BEACH      1200      57  140/  8/ 10   N/A

OFFSHORE STATIONS

STATION/POSITION TIME  TEMP    WIND        PRES    WAVE
                       AIR SEA DIR/SP/G            HT/PER
                 (UTC) (F)     (DEG/KT/KT) (MB)    (FT/S)
64 S DAUPHIN ISL 1100   70 71  130/ 10/ 10 1021.0    2/ 7

$$




USA.gov is the U.S. government's official web portal to all federal, state and local government web resources and services.